Fernie, Canada 16 day weather forecast

Slopes altitude range 1065 m - 1925m

Number of lifts: 9 Pistes: -1km

In some cases the lift and piste totals shown are for the ski domain (e.g. Three Valleys) rather than individual resort (e.g. Courchevel)

Overview

The 16 day weather forecast is fully updated 4 times every day.

    • Sun 17 FEB 2019
    • Sun 17
    • -18C -16C
    • Mon 18 FEB 2019
    • Mon 18
    • -25C -23C
    • Tue 19 FEB 2019
    • Tue 19
    • -19C -17C
    • Wed 20 FEB 2019
    • Wed 20
    • -13C -13C
    • Thu 21 FEB 2019
    • Thu 21
    • -17C -12C
    • Fri 22 FEB 2019
    • Fri 22
    • -17C -15C
    • Sat 23 FEB 2019
    • Sat 23
    • -13C -11C
    • Sun 24 FEB 2019
    • Sun 24
    • -13C -8C
    • Mon 25 FEB 2019
    • Mon 25
    • -26C -23C
    • Tue 26 FEB 2019
    • Tue 26
    • -30C -29C
    • Wed 27 FEB 2019
    • Wed 27
    • -25C -13C
    • Thu 28 FEB 2019
    • Thu 28
    • -18C -11C
    • Fri 01 MAR 2019
    • Fri 01
    • -19C -10C
    • Sat 02 MAR 2019
    • Sat 02
    • -14C -8C
    • Sun 03 MAR 2019
    • Sun 03
    • -14C -10C
    • Mon 04 MAR 2019
    • Mon 04
    • -17C -11C

Date:

Time Type 0°C level Temp Chill Snow Cloud Speed Gust Dir Press
12:00 0m -16°C -16_5 1cm 100% 5mph 8mph 1029mB
15:00 0m -18°C -18_5 1cm 100% 5mph 7mph 1032mB
18:00 0m -16°C -16_5 1cm 100% 5mph 8mph 1033mB
21:00 0m -16°C -16_4 0cm 100% 4mph 7mph 1032mB
0:00 0m -16°C -16_4 0cm 100% 4mph 6mph 1032mB
3:00 0m -20°C -20_4 0cm 100% 4mph 5mph 1036mB
6:00 0m -23°C -23_4 0cm 90% 4mph 5mph 1038mB
9:00 0m -24°C -24_4 0cm 10% 4mph 5mph 1039mB
12:00 0m -23°C -23_4 0cm 5% 4mph 4mph 1039mB
15:00 0m -24°C -24_4 0cm 1% 4mph 4mph 1039mB
18:00 0m -14°C -14_1 0cm 0% 1mph 1mph 1034mB
21:00 14m -13°C -13_3 0cm 0% 3mph 3mph 1029mB
0:00 0m -13°C -13_3 0cm 36% 3mph 4mph 1027mB
3:00 0m -19°C -19_2 0cm 66% 2mph 2mph 1030mB
6:00 0m -19°C -19_2 0cm 83% 2mph 2mph 1030mB
9:00 0m -18°C -18_2 1cm 100% 2mph 3mph 1028mB
12:00 0m -17°C -17_2 1cm 100% 2mph 2mph 1027mB
15:00 0m -19°C -19_2 1cm 100% 2mph 3mph 1026mB
18:00 0m -13°C -13_4 1cm 100% 4mph 6mph 1021mB
21:00 67m -13°C -13_5 1cm 100% 5mph 8mph 1017mB
0:00 15m -13°C -13_4 1cm 100% 4mph 7mph 1015mB
3:00 0m -13°C -13_2 1cm 100% 2mph 3mph 1015mB
6:00 0m -13°C -13_2 1cm 100% 2mph 2mph 1014mB
9:00 0m -13°C -13_0 1cm 100% 0mph 1mph 1013mB
12:00 0m -13°C -13_2 1cm 100% 2mph 2mph 1013mB
15:00 0m -13°C -13_2 1cm 100% 2mph 3mph 1014mB
18:00 443m -8°C -8_2 1cm 100% 2mph 3mph 1013mB
21:00 810m -7°C -7_1 1cm 100% 1mph 2mph 1012mB
0:00 618m -7°C -7_2 1cm 100% 2mph 6mph 1014mB
3:00 136m -10°C -10_3 1cm 100% 3mph 4mph 1018mB
6:00 0m -12°C -12_4 1cm 100% 4mph 5mph 1022mB
9:00 0m -14°C -14_4 0cm 100% 4mph 5mph 1024mB
12:00 0m -12°C -12_4 0cm 100% 4mph 5mph 1026mB
15:00 0m -16°C -16_4 0cm 100% 4mph 4mph 1028mB
18:00 2m -11°C -11_3 0cm 100% 3mph 4mph 1025mB
21:00 455m -10°C -10_3 0cm 99% 3mph 3mph 1022mB
0:00 297m -10°C -10_3 0cm 99% 3mph 4mph 1021mB
3:00 0m -16°C -16_1 0cm 20% 1mph 2mph 1024mB
6:00 0m -18°C -18_2 0cm 11% 2mph 3mph 1024mB
9:00 0m -17°C -17_3 1cm 99% 3mph 3mph 1024mB
12:00 0m -15°C -15_3 1cm 99% 3mph 4mph 1023mB
15:00 0m -15°C -15_3 1cm 100% 3mph 4mph 1023mB
18:00 88m -10°C -10_5 1cm 100% 5mph 9mph 1020mB
21:00 411m -10°C -10_7 1cm 100% 7mph 12mph 1016mB
0:00 348m -10°C -10_6 1cm 100% 6mph 11mph 1015mB
3:00 0m -11°C -11_4 1cm 100% 4mph 5mph 1016mB
6:00 0m -11°C -11_3 1cm 100% 3mph 4mph 1018mB
9:00 0m -12°C -12_3 1cm 100% 3mph 4mph 1019mB
12:00 0m -11°C -11_3 1cm 99% 3mph 4mph 1018mB
15:00 0m -12°C -12_3 1cm 99% 3mph 4mph 1017mB
18:00 492m -7°C -7_4 1cm 99% 4mph 9mph 1013mB
21:00 783m -7°C -7_5 1cm 100% 5mph 11mph 1010mB
0:00 720m -7°C -7_4 2cm 100% 4mph 9mph 1009mB
3:00 288m -9°C -9_3 1cm 100% 3mph 3mph 1010mB
6:00 406m -9°C -9_4 2cm 100% 4mph 6mph 1012mB
9:00 0m -11°C -11_5 2cm 100% 5mph 8mph 1015mB
12:00 0m -8°C -8_4 2cm 100% 4mph 5mph 1019mB
15:00 0m -13°C -13_5 1cm 100% 5mph 6mph 1022mB
18:00 0m -12°C -12_5 1cm 100% 5mph 9mph 1024mB
21:00 16m -14°C -14_5 1cm 82% 5mph 6mph 1026mB
0:00 0m -14°C -14_5 1cm 86% 5mph 7mph 1027mB
3:00 0m -20°C -20_5 0cm 88% 5mph 5mph 1032mB
6:00 0m -23°C -23_4 0cm 81% 4mph 5mph 1034mB
9:00 0m -25°C -25_4 0cm 67% 4mph 5mph 1036mB
12:00 0m -23°C -23_4 0cm 65% 4mph 5mph 1037mB
15:00 0m -26°C -26_4 0cm 66% 4mph 5mph 1038mB
18:00 0m -19°C -19_4 0cm 66% 4mph 6mph 1037mB
21:00 0m -19°C -19_5 0cm 73% 5mph 6mph 1034mB
0:00 0m -19°C -19_5 0cm 77% 5mph 6mph 1035mB
3:00 0m -26°C -26_5 0cm 61% 5mph 5mph 1041mB
6:00 0m -29°C -29_4 0cm 53% 4mph 4mph 1044mB
9:00 0m -30°C -30_3 0cm 43% 3mph 4mph 1045mB
12:00 0m -29°C -29_3 0cm 39% 3mph 4mph 1046mB
15:00 0m -29°C -29_3 0cm 29% 3mph 3mph 1046mB
18:00 0m -16°C -16_2 0cm 20% 2mph 3mph 1041mB
21:00 283m -15°C -15_1 0cm 17% 1mph 1mph 1037mB
0:00 0m -15°C -15_1 0cm 43% 1mph 3mph 1036mB
3:00 0m -21°C -21_2 0cm 59% 2mph 2mph 1040mB
6:00 0m -22°C -22_3 0cm 34% 3mph 4mph 1041mB
Afternoon 0mm 0 28m -13°C -13_4 0cm 8% 4mph 6mph 1035mB
Morning 0mm 0 0m -16°C -16_4 0cm 82% 4mph 4mph 1037mB
Afternoon 0mm 0 275m -11°C -11_4 0cm 100% 4mph 6mph 1033mB
Morning 0mm 0 37m -13°C -13_2 0cm 99% 2mph 2mph 1035mB
Afternoon 0mm 0 374m -10°C -10_6 0cm 71% 6mph 10mph 1028mB
Morning 0mm 0 9m -13°C -13_6 0cm 100% 6mph 9mph 1019mB
Afternoon 0mm 0 718m -8°C -8_5 0cm 100% 5mph 8mph 1020mB
Morning 0mm 0.625 77m -12°C -12_4 5cm 100% 4mph 6mph 1018mB
Afternoon 0mm 0 480m -10°C -10_6 0cm 100% 6mph 9mph 1005mB
Morning 0mm 0.125 179m -12°C -12_4 1cm 100% 4mph 4mph 1007mB
Afternoon 0mm 0 256m -11°C -11_7 0cm 100% 7mph 13mph 1017mB
Morning 0.015625mm 0.0625 0m -18°C -18_5 1cm 100% 5mph 6mph 1029mB

16 day outlook at a glance

Forecast issued: 2/17/2019 1:32:44 PM

Chat

Your comments and questions. In a resort? Let us know what it's like!


Characters left 250

For terms and conditions see Readers Comments on the Cookie and privacy policy page.